Stations météo

Publicité
Saarbrücken-Ensheim, Allemagne (10708): Température de l'air & dewpoint: 05.12.2019 11:00:00 - 11.12.2019 11:00:00 (CET)Saarbrücken-Ensheim, Allemagne (10708): Température de l'air 5cm & Température de l'air -5cm: 05.12.2019 11:00:00 - 11.12.2019 11:00:00 (CET)Saarbrücken-Ensheim, Allemagne (10708): Température de l'air -20cm & Température de l'air -100cm: 05.12.2019 11:00:00 - 11.12.2019 11:00:00 (CET)Saarbrücken-Ensheim, Allemagne (10708): Vitesse du vent & gusts: 05.12.2019 11:00:00 - 11.12.2019 11:00:00 (CET)Saarbrücken-Ensheim, Allemagne (10708): Direction du vent: 05.12.2019 11:00:00 - 11.12.2019 11:00:00 (CET)Saarbrücken-Ensheim, Allemagne (10708): reduced air pressure: 05.12.2019 11:00:00 - 11.12.2019 11:00:00 (CET)Saarbrücken-Ensheim, Allemagne (10708): visibility: 05.12.2019 11:00:00 - 11.12.2019 11:00:00 (CET)Saarbrücken-Ensheim, Allemagne (10708): Ensoleillement: 05.12.2019 11:00:00 - 11.12.2019 11:00:00 (CET)Saarbrücken-Ensheim, Allemagne (10708): Quantités de précipitations: 05.12.2019 11:00:00 - 11.12.2019 11:00:00 (CET)
Date & Time tt [°C] td [°C] tt 5cm [°C] tt -5cm [°C] tt -20cm [°C] tt -100cm [°C] ff [km/h] ff [knt] fx [km/h] fx [knt] dd ppp [hPa] vv [km] sd [min] rr [mm]
11.12.2019 11:00:00 2,1 0,5 1,7 2,1 2,9 7,4 14 8 29 16 SSW 1013,0 8 0 0,8
11.12.2019 10:00:00 2,1 -0,4 1,5 1,8 2,8 7,4 17 9 26 14 SSW 1013,5 25 0 0,4
11.12.2019 09:00:00 2,1 -1,4 1,4 1,5 2,8 7,4 16 9 37 20 S 1014,1 10 0 0,0
11.12.2019 08:00:00 2,0 -1,9 1,4 1,3 2,7 7,4 16 9 29 16 SSW 1014,6 18 0 0,0
11.12.2019 07:00:00 1,8 -2,4 1,2 1,1 2,8 7,4 14 8 28 15 S 1015,4 30 0 0,0
11.12.2019 06:00:00 1,8 -2,5 1,0 1,1 2,8 7,4 18 10 26 14 SSW 1016,1 40 0 0,0
11.12.2019 05:00:00 1,7 -2,7 0,7 1,1 2,8 7,4 16 8 26 14 SW 1017,1 40 0 0,0
11.12.2019 04:00:00 2,5 -3,2 1,6 1,1 2,8 7,4 11 6 22 12 SSW 1017,6 40 0 0,0
11.12.2019 03:00:00 2,4 -2,9 1,1 1,0 2,8 7,4 10 6 23 13 SSW 1018,6 40 0 0,0
11.12.2019 02:00:00 2,4 -2,6 0,8 0,9 2,8 7,4 15 8 24 13 S 1019,5 40 0 0,0
11.12.2019 01:00:00 2,3 -2,0 0,6 0,8 2,9 7,4 8 4 13 7 S 1020,3 40 0 0,0
11.12.2019 00:00:00 2,0 -1,4 0,3 0,8 2,9 7,4 8 4 15 8 SSW 1021,7 10 0 0,0
10.12.2019 23:00:00 1,9 -1,1 0,1 0,8 3,0 7,4 8 4 15 8 SSE 1022,2 10 0 0,0
10.12.2019 22:00:00 1,8 -0,6 -0,1 0,8 3,1 7,4 6 3 16 9 S 1023,1 30 0 0,0
10.12.2019 21:00:00 1,2 -0,8 -0,3 0,9 3,2 7,4 5 3 13 7 S 1023,7 10 0 0,0
10.12.2019 20:00:00 0,7 -0,7 -2,3 0,9 3,4 7,4 8 4 16 9 S 1024,5 30 0 0,0
10.12.2019 19:00:00 1,0 0,0 -2,4 0,9 3,5 7,4 5 3 8 4 SE 1025,0 10 0 0,0
10.12.2019 18:00:00 0,6 -0,5 -1,2 1,4 3,7 7,4 4 2 5 3 - 1026,2 10 0 0,0
10.12.2019 17:00:00 1,1 -0,4 -1,3 2,0 3,8 7,4 4 2 11 6 SSE 1026,4 10 1 0,0
10.12.2019 16:00:00 2,8 0,5 0,9 3,3 3,7 7,4 9 5 15 8 SSW 1026,8 20 40 0,0
10.12.2019 15:00:00 2,7 0,5 2,3 3,4 3,6 7,4 11 6 21 11 S 1027,5 10 0 0,0
10.12.2019 14:00:00 2,1 0,0 2,4 3,1 3,4 7,4 11 6 29 16 SW 1028,5 20 0 -
10.12.2019 13:00:00 1,4 0,7 1,7 2,5 3,3 7,4 15 8 24 13 SSW 1029,8 7 0 -
10.12.2019 12:00:00 1,1 0,8 1,6 1,8 3,3 7,4 15 8 21 11 SSW 1030,1 0,7 0 0,0
10.12.2019 11:00:00 0,5 0,2 0,5 0,9 3,3 7,4 9 5 15 8 SSW 1030,4 0,3 0 0,0
10.12.2019 10:00:00 0,3 -0,3 -0,1 0,9 3,4 7,4 6 3 9 5 SSW 1029,7 5 43 0,0
10.12.2019 09:00:00 -0,4 -0,5 -2,5 0,9 3,5 7,4 9 5 12 6 W 1029,5 8 0 0,0
10.12.2019 08:00:00 -0,5 -1,0 -3,3 0,9 3,7 7,4 3 2 5 3 W 1028,9 15 0 0,0
10.12.2019 07:00:00 0,0 -0,9 -2,9 1,0 3,8 7,4 4 2 13 7 SW 1028,5 20 0 0,0
10.12.2019 06:00:00 1,0 0,0 -0,7 1,1 4,0 7,4 8 4 16 9 W 1028,0 10 0 0,0
10.12.2019 05:00:00 1,2 -0,1 -0,7 1,3 4,2 7,4 8 4 13 7 W 1027,2 10 0 0,0
10.12.2019 04:00:00 1,7 0,1 0,2 1,3 4,4 7,4 9 5 13 7 W 1026,2 25 0 0,0
10.12.2019 03:00:00 0,9 -0,3 -1,2 1,5 4,7 7,4 5 3 14 7 SW 1025,4 10 0 0,0
10.12.2019 02:00:00 2,2 -0,2 0,0 2,3 4,9 7,4 13 7 25 13 WNW 1024,1 30 0 0,0
10.12.2019 01:00:00 2,8 -0,1 0,9 3,0 5,1 7,4 15 8 31 17 WNW 1022,9 10 0 0,0
10.12.2019 00:00:00 3,8 0,3 2,2 3,5 5,2 7,4 16 9 35 19 WNW 1021,3 35 0 0,0
09.12.2019 23:00:00 4,1 1,2 2,5 3,8 5,3 7,4 19 10 38 21 NW 1019,5 35 0 0,0
09.12.2019 22:00:00 4,8 1,3 3,5 4,2 5,4 7,3 22 12 48 26 NNW 1017,3 35 0 0,0
09.12.2019 21:00:00 5,0 3,2 4,3 4,7 5,5 7,3 20 11 36 19 NW 1014,9 30 0 0,0
09.12.2019 20:00:00 4,9 3,2 4,2 4,8 5,6 7,3 26 14 43 23 WNW 1012,2 10 0 0,2
09.12.2019 19:00:00 4,9 3,4 4,2 5,0 5,6 7,3 29 16 45 24 W 1009,7 8 0 0,9
09.12.2019 18:00:00 5,4 3,8 4,7 5,1 5,7 7,3 18 10 31 17 W 1008,7 10 0 0,1
09.12.2019 17:00:00 5,5 3,6 4,8 5,3 5,7 7,3 21 11 31 17 W 1007,5 10 0 0,0
09.12.2019 16:00:00 5,2 3,7 4,2 5,5 5,7 7,3 17 9 31 17 W 1006,1 50 0 0,4
09.12.2019 15:00:00 5,4 4,3 5,0 5,8 5,7 7,3 21 11 29 16 W 1004,7 10 0 0,4
09.12.2019 14:00:00 5,5 4,7 5,3 6,0 5,6 7,3 22 12 44 24 WSW 1003,9 6 0 0,3
09.12.2019 13:00:00 5,6 4,5 5,6 5,7 5,5 7,3 31 17 42 23 WSW 1003,3 10 0 0,5
09.12.2019 12:00:00 5,5 4,3 5,2 5,5 5,5 7,3 29 16 43 23 SW 1003,5 6 0 0,3
09.12.2019 11:00:00 5,5 4,3 5,0 5,3 5,5 7,3 30 16 43 23 SW 1003,5 20 0 1,0
09.12.2019 10:00:00 5,4 3,9 4,9 5,1 5,5 7,3 28 15 48 26 SSW 1003,1 10 0 0,5
09.12.2019 09:00:00 5,5 4,0 4,8 4,9 5,5 7,3 26 14 43 23 SSW 1002,8 7 0 0,3
09.12.2019 08:00:00 5,6 3,9 4,7 5,0 5,6 7,3 34 18 52 28 SW 1003,1 10 0 0,8
09.12.2019 07:00:00 5,6 3,6 4,4 5,0 5,6 7,3 28 15 46 25 SW 1003,4 10 0 0,8
09.12.2019 06:00:00 6,1 3,3 5,0 5,1 5,7 7,3 28 15 47 25 SW 1003,9 10 0 0,0
09.12.2019 05:00:00 6,3 3,5 5,3 5,1 5,7 7,3 28 15 41 22 SW 1004,5 10 0 0,0
09.12.2019 04:00:00 6,0 3,3 5,0 5,1 5,8 7,3 24 13 46 25 SW 1005,0 10 0 0,0
09.12.2019 03:00:00 5,8 2,5 4,2 5,2 5,9 7,3 28 15 50 27 SW 1005,5 30 0 0,0
09.12.2019 02:00:00 6,2 4,7 5,5 5,6 5,9 7,3 29 16 53 29 SW 1005,6 10 0 2,7
09.12.2019 01:00:00 6,1 4,5 5,4 5,7 6,0 7,3 35 19 54 29 WSW 1006,2 9 0 0,5
09.12.2019 00:00:00 6,8 4,2 5,8 5,6 6,1 7,2 29 15 44 24 WSW 1006,4 30 0 0,0
08.12.2019 23:00:00 6,6 4,4 5,2 5,7 6,2 7,2 24 13 46 25 WSW 1006,5 10 0 0,0
08.12.2019 22:00:00 7,0 5,4 5,8 6,3 6,3 7,2 26 14 41 22 WSW 1006,5 10 0 0,0
08.12.2019 21:00:00 7,0 5,3 6,1 6,6 6,3 7,2 22 12 40 21 WSW 1006,3 30 0 0,0
08.12.2019 20:00:00 7,2 6,1 6,6 7,0 6,3 7,2 22 12 48 26 WSW 1006,3 10 0 1,2
08.12.2019 19:00:00 8,7 7,9 8,2 7,4 6,3 7,2 35 19 54 29 SW 1005,7 4,0 0 0,6
08.12.2019 18:00:00 8,8 7,9 8,2 7,3 6,2 7,2 34 18 57 31 SW 1005,9 3,5 0 0,7
08.12.2019 17:00:00 8,7 7,9 8,2 7,3 6,1 7,2 33 18 59 32 SW 1006,6 3,0 0 0,4
08.12.2019 16:00:00 8,7 7,7 8,1 7,3 6,0 7,2 31 17 57 31 SW 1007,1 4,5 0 0,6
08.12.2019 15:00:00 8,6 7,5 8,1 7,2 5,9 7,2 35 19 57 31 SSW 1007,7 5 0 0,6
08.12.2019 14:00:00 8,8 7,4 8,1 7,1 5,8 7,2 32 17 53 28 SW 1008,7 10 0 0,5
08.12.2019 13:00:00 8,5 7,4 8,0 7,0 5,6 7,2 34 18 49 27 SSW 1009,2 10 0 0,2
08.12.2019 12:00:00 9,0 6,6 8,6 6,7 5,5 7,2 26 14 46 25 SW 1011,0 10 0 0,0
08.12.2019 11:00:00 8,3 6,7 7,6 6,4 5,4 7,2 29 16 42 23 SSW 1011,8 10 0 0,0
08.12.2019 10:00:00 8,3 6,1 7,7 6,1 5,3 7,2 28 15 43 23 SW 1012,4 13 0 0,0
08.12.2019 09:00:00 7,9 5,7 7,1 5,8 5,3 7,2 26 14 44 24 SW 1012,8 15 0 0,0
08.12.2019 08:00:00 7,5 5,6 6,7 5,7 5,2 7,2 26 14 46 25 SW 1013,1 10 0 0,0
08.12.2019 07:00:00 7,9 4,7 7,1 5,6 5,2 7,2 28 15 41 22 SW 1013,5 10 0 0,0
08.12.2019 06:00:00 7,3 5,2 6,7 5,5 5,2 7,2 24 13 41 22 SW 1014,2 10 0 0,0
08.12.2019 05:00:00 7,2 5,2 6,4 5,4 5,2 7,2 26 14 41 22 SW 1015,0 30 0 0,0
08.12.2019 04:00:00 7,0 4,5 6,4 5,4 5,1 7,2 24 13 33 18 SW 1015,9 40 0 0,0
08.12.2019 03:00:00 7,0 4,8 6,4 5,4 5,1 7,2 24 13 37 20 SW 1016,6 10 0 0,0
08.12.2019 02:00:00 7,1 4,8 6,5 5,5 5,1 7,3 21 11 31 17 SW 1017,5 30 0 0,0
08.12.2019 01:00:00 7,0 5,6 6,4 5,5 5,1 7,3 21 12 29 16 SW 1018,3 30 0 0,0
08.12.2019 00:00:00 7,1 5,9 6,6 5,5 5,1 7,3 16 9 29 16 SW 1018,7 25 0 0,0
07.12.2019 23:00:00 7,1 5,9 6,5 5,4 5,1 7,3 20 11 28 15 SW 1019,0 30 0 0,0
07.12.2019 22:00:00 7,0 5,7 6,4 5,4 5,1 7,3 15 8 25 13 SW 1019,5 10 0 0,0
07.12.2019 21:00:00 7,2 5,3 6,5 5,4 5,1 7,3 21 11 31 17 SW 1019,4 10 0 0,0
07.12.2019 20:00:00 7,2 5,4 6,5 5,4 5,1 7,3 21 11 28 15 WSW 1019,5 35 0 0,0
07.12.2019 19:00:00 7,2 5,7 6,3 5,7 5,2 7,3 21 11 28 15 SW 1019,3 10 0 0,0
07.12.2019 18:00:00 7,6 5,8 6,6 5,9 5,2 7,3 13 7 23 13 WSW 1019,1 35 0 0,0
07.12.2019 17:00:00 7,8 5,6 6,8 6,2 5,2 7,3 15 8 27 15 WSW 1018,4 10 0 0,0
07.12.2019 16:00:00 8,2 5,6 7,4 6,5 5,1 7,3 15 8 29 15 SW 1018,2 10 0 0,0
07.12.2019 15:00:00 8,4 5,5 7,5 6,8 4,9 7,3 21 12 35 19 WSW 1017,8 40 0 0,0
07.12.2019 14:00:00 8,3 5,8 7,4 7,0 4,7 7,3 16 9 31 17 WSW 1017,3 10 5 0,0
07.12.2019 13:00:00 8,1 6,0 7,4 6,7 4,5 7,4 22 12 35 19 WSW 1017,7 10 0 0,0
07.12.2019 12:00:00 7,9 6,7 7,5 6,3 4,3 7,4 18 10 31 17 WSW 1017,8 10 0 0,3
07.12.2019 11:00:00 7,6 6,5 7,2 6,0 4,1 7,4 19 10 31 17 WSW 1017,9 20 0 0,0
07.12.2019 10:00:00 7,6 6,7 7,3 5,5 3,9 7,4 21 11 29 16 SW 1017,2 15 0 0,1
07.12.2019 09:00:00 7,4 6,5 6,7 5,0 3,8 7,4 21 11 29 16 WSW 1016,8 10 0 0,0
07.12.2019 08:00:00 7,3 6,4 6,6 5,0 3,6 7,4 21 11 36 20 WSW 1016,3 10 0 0,0
07.12.2019 07:00:00 7,4 6,5 6,6 4,9 3,4 7,4 19 11 30 16 WSW 1015,7 20 0 0,6
07.12.2019 06:00:00 7,4 6,6 6,7 4,7 3,2 7,4 21 11 37 20 WSW 1014,7 6 0 0,7
07.12.2019 05:00:00 7,2 6,4 6,6 4,5 3,0 7,4 26 14 39 21 SW 1014,1 8 0 0,3
07.12.2019 04:00:00 7,0 6,2 6,3 4,2 2,7 7,4 26 14 42 23 SW 1013,8 10 0 0,2
07.12.2019 03:00:00 6,7 5,9 6,0 3,8 2,4 7,5 34 18 44 24 SW 1013,5 10 0 0,3
07.12.2019 02:00:00 6,1 5,4 5,5 3,3 2,2 7,5 31 17 46 25 SW 1013,3 10 0 0,1
07.12.2019 01:00:00 5,6 4,9 5,0 2,8 1,9 7,5 31 17 50 27 SW 1013,2 3,0 0 0,1
07.12.2019 00:00:00 5,1 4,3 4,6 2,1 1,6 7,5 31 17 53 29 SW 1013,5 3,0 0 0,8
06.12.2019 23:00:00 4,4 3,4 3,8 1,2 1,5 7,5 28 15 50 27 SW 1013,6 4,0 0 0,5
06.12.2019 22:00:00 3,8 2,5 3,1 0,2 1,5 7,5 26 14 41 22 SW 1014,1 12 0 0,0
06.12.2019 21:00:00 3,1 2,0 2,5 0,0 1,5 7,5 23 13 39 21 SW 1015,0 5 0 0,5
06.12.2019 20:00:00 3,1 1,8 2,4 0,0 1,5 7,5 26 14 38 21 SSW 1015,7 10 0 1,5
06.12.2019 19:00:00 3,0 1,4 2,2 -0,1 1,5 7,5 21 11 34 18 SW 1015,9 10 0 1,3
06.12.2019 18:00:00 3,1 1,5 2,2 -0,1 1,5 7,6 18 10 35 19 SW 1016,2 10 0 0,3
06.12.2019 17:00:00 3,0 1,1 2,2 -0,1 1,5 7,6 24 13 35 19 SSW 1016,4 10 0 0,0
06.12.2019 16:00:00 2,8 1,3 2,2 -0,1 1,5 7,6 24 13 33 18 SW 1016,8 10 0 0,0
06.12.2019 15:00:00 2,5 1,4 2,2 -0,1 1,5 7,6 21 11 30 16 SSW 1017,2 10 0 0,0
06.12.2019 14:00:00 1,7 1,0 1,6 -0,1 1,5 7,6 18 10 25 14 SW 1018,2 5 0 0,0
06.12.2019 13:00:00 0,9 0,4 1,2 -0,1 1,5 7,6 15 8 29 16 SSW 1019,1 2,8 0 0,0
06.12.2019 12:00:00 0,3 0,3 0,5 -0,1 1,5 7,6 16 9 24 13 SSW 1020,3 0,4 0 0,0
06.12.2019 11:00:00 -0,1 -0,3 -0,1 -0,1 1,5 7,6 15 8 25 14 SSW 1021,4 0,2 0 0,0
06.12.2019 10:00:00 -0,7 -1,0 -0,6 -0,2 1,5 7,6 14 8 21 11 SW 1021,4 0,2 0 0,0
06.12.2019 09:00:00 -1,3 -1,7 -1,2 -0,2 1,5 7,7 16 9 24 13 SSE 1021,7 0,2 0 0,0
06.12.2019 08:00:00 -1,6 -2,0 -1,5 -0,2 1,5 7,7 17 9 24 13 SW 1021,7 0,6 0 0,0
06.12.2019 07:00:00 -1,9 -2,4 -1,8 -0,3 1,5 7,7 13 7 21 11 SSW 1022,0 0,7 0 0,0
06.12.2019 06:00:00 -2,2 -2,6 -2,1 -0,3 1,5 7,7 14 8 26 14 WSW 1022,1 0,9 0 0,0
06.12.2019 05:00:00 -2,2 -2,6 -2,1 -0,3 1,5 7,7 16 9 22 12 WSW 1022,5 0,3 0 0,0
06.12.2019 04:00:00 -2,3 -3,0 -2,2 -0,3 1,5 7,7 14 8 22 12 WSW 1023,0 0,3 0 0,0
06.12.2019 03:00:00 -2,5 -3,1 -2,3 -0,3 1,5 7,7 11 6 21 11 SW 1023,1 0,6 0 0,0
06.12.2019 02:00:00 -2,3 -2,8 -2,1 -0,3 1,5 7,7 11 6 18 10 SE 1023,3 0,6 0 0,0
06.12.2019 01:00:00 -2,4 -2,8 -2,3 -0,3 1,5 7,7 16 9 23 12 SW 1023,6 0,5 0 0,0
06.12.2019 00:00:00 -2,0 -2,6 -1,9 -0,3 1,6 7,7 11 6 17 9 SSE 1023,9 0,2 0 0,0
05.12.2019 23:00:00 -2,6 -3,1 -2,4 -0,3 1,6 7,8 9 5 14 8 W 1024,1 0,2 0 0,0
05.12.2019 22:00:00 -2,7 -3,4 -4,3 -0,4 1,6 7,8 9 5 13 7 SW 1024,3 0,4 0 0,0
05.12.2019 21:00:00 -4,5 -5,7 -6,5 -0,3 1,6 7,8 5 3 9 5 S 1024,5 0,4 0 0,0
05.12.2019 20:00:00 -2,0 -2,7 -6,0 -0,1 1,6 7,8 4 2 11 6 - 1024,4 1,1 0 0,0
05.12.2019 19:00:00 -0,8 -1,6 -4,4 -0,1 1,6 7,8 9 5 11 6 WSW 1024,2 4,5 0 0,0
05.12.2019 18:00:00 -1,0 -2,3 -3,7 -0,1 1,6 7,8 8 4 11 6 SSW 1024,0 6 0 0,0
05.12.2019 17:00:00 0,1 -1,9 -1,6 -0,1 1,6 7,8 9 5 13 7 SSW 1023,5 6 5 0,0
05.12.2019 16:00:00 1,1 -1,7 -1,0 -0,1 1,6 7,8 5 3 12 7 SW 1023,5 8 60 0,0
05.12.2019 15:00:00 1,8 -1,5 0,8 -0,1 1,6 7,8 8 4 13 7 SSW 1023,6 8 60 0,0
05.12.2019 14:00:00 2,0 -1,6 2,7 -0,1 1,6 7,8 8 4 11 6 S 1023,4 8 60 0,0
05.12.2019 13:00:00 0,3 -2,3 -0,4 -0,2 1,7 7,9 8 4 13 7 WSW 1024,3 7 60 0,0
05.12.2019 12:00:00 -0,1 -2,0 2,0 -0,3 1,7 7,9 5 3 8 4 W 1024,4 6 60 0,0
05.12.2019 11:00:00 -1,0 -2,8 -0,8 -0,4 1,7 7,9 4 2 8 4 - 1024,9 5 60 0,0

tt = Température de l'air
td = dewpoint
tt 5cm = Température de l'air 5cm
tt -5cm = Température de l'air -5cm
tt -20cm = Température de l'air -20cm
tt -100cm = Température de l'air -100cm
ff = Vitesse du vent
fx = gusts
dd = Direction du vent
ppp = reduced air pressure
vv = visibility
sd = Ensoleillement
rr = Quantités de précipitations

stations d'obs. à proximité